Albany, NY

5:45 PM EST on November 15, 2019 (GMT -0500)
Albany International

Weather History for KALB - September, 2019

Change the Weather History Date:

Wednesday, September 4, 2019

  Actual Average Record
Temperature  
Mean Temperature 70 °F 66 °F  
Max Temperature 80 °F 77 °F 97 °F (1929)
Min Temperature 59 °F 56 °F 37 °F (1946)
Degree Days  
Heating Degree Days 0 2  
Month to date heating degree days 2 7  
Since 1 July heating degree days 4 30  
Cooling Degree Days 5 3  
Month to date cooling degree days 11 14  
Year to date cooling degree days 734 557  
Growing Degree Days 22 (Base 50)    
Moisture  
Dew Point 62 °F    
Average Humidity 64    
Maximum Humidity 74    
Minimum Humidity 54    
Precipitation  
Precipitation 0.81 in 0.11 in 2.56 in (1966)
Month to date precipitation 1.77 0.40  
Year to date precipitation 30.75 26.55  
Sea Level Pressure  
Sea Level Pressure 29.88 in    
Wind  
Wind Speed 12 mph (SSW)    
Max Wind Speed 24 mph    
Max Gust Speed 34 mph    
Visibility 8 miles    
Events Rain , Thunderstorm    
T = Trace of Precipitation, MM = Missing Value Source: NWS Daily Summary

Daily Weather History Graph

Daily Weather History Graph

Search for Another Location

Airport or City:

Astronomy

Sep. 04, 2019 Rise Set
Actual Time 6:22 AM EDT 7:24 PM EDT
Civil Twilight 5:53 AM EDT 7:53 PM EDT
Nautical Twilight 5:19 AM EDT 8:28 PM EDT
Astronomical Twilight 4:43 AM EDT 9:04 PM EDT
Moon 12:29 PM EDT (9/4) 10:49 PM EDT (9/4)
Length of Visible Light 13h 59m
Length of Day
13h 02m
Waxing Crescent, 34% of the Moon is Illuminated
Sep 4
Waxing Crescent
Sep 5
First Quarter
Sep 14
Full
Sep 21
Last Quarter
Sep 28
New

Hourly Weather History & Observations

Time (EDT) Temp. Dew Point Humidity Pressure Visibility Wind Dir Wind Speed Gust Speed Precip Events Conditions
12:51 AM 70.0 °F 59.0 °F 68% 29.97 in 10.0 mi South 9.2 mph - N/A   Overcast
1:51 AM 70.0 °F 57.9 °F 65% 29.95 in 10.0 mi South 11.5 mph - N/A   Scattered Clouds
2:51 AM 69.1 °F 57.0 °F 65% 29.92 in 10.0 mi South 10.4 mph - N/A   Partly Cloudy
3:51 AM 68.0 °F 57.0 °F 68% 29.91 in 10.0 mi South 12.7 mph - N/A   Partly Cloudy
4:51 AM 69.1 °F 55.9 °F 63% 29.90 in 10.0 mi South 9.2 mph - N/A   Mostly Cloudy
5:51 AM 68.0 °F 55.0 °F 63% 29.90 in 10.0 mi South 13.8 mph 23.0 mph N/A   Mostly Cloudy
6:51 AM 68.0 °F 55.0 °F 63% 29.88 in 10.0 mi South 11.5 mph 21.9 mph N/A   Scattered Clouds
7:51 AM 68.0 °F 57.9 °F 70% 29.88 in 10.0 mi South 15.0 mph 21.9 mph N/A   Scattered Clouds
8:51 AM 70.0 °F 60.1 °F 71% 29.87 in 10.0 mi South 17.3 mph 23.0 mph N/A   Scattered Clouds
9:51 AM 72.0 °F 62.1 °F 71% 29.86 in 10.0 mi SSE 10.4 mph 19.6 mph N/A   Scattered Clouds
10:51 AM 75.0 °F 63.0 °F 66% 29.84 in 10.0 mi South 15.0 mph 23.0 mph N/A   Scattered Clouds
11:11 AM 75.0 °F 64.0 °F 69% 29.84 in 10.0 mi South 13.8 mph 21.9 mph N/A Thunderstorm Thunderstorm
11:27 AM 73.9 °F 66.0 °F 76% 29.83 in 5.0 mi South 16.1 mph 21.9 mph 0.04 in Rain , Thunderstorm Light Thunderstorms and Rain
11:37 AM 73.9 °F 64.9 °F 73% 29.82 in 1.2 mi South 15.0 mph - 0.04 in Rain , Thunderstorm Heavy Thunderstorms and Rain
11:42 AM 73.0 °F 64.9 °F 76% 29.83 in 2.0 mi South 17.3 mph - 0.12 in Rain , Thunderstorm Heavy Thunderstorms and Rain
11:51 AM 73.0 °F 64.9 °F 76% 29.82 in 2.0 mi SSE 11.5 mph - 0.14 in Rain , Thunderstorm Thunderstorms and Rain
12:01 PM 73.0 °F 66.0 °F 79% 29.82 in 1.0 mi SSE 13.8 mph 19.6 mph 0.01 in Rain , Thunderstorm Heavy Thunderstorms and Rain
12:12 PM 71.1 °F 66.0 °F 84% 29.84 in 1.0 mi South 12.7 mph - 0.27 in Rain , Thunderstorm Heavy Thunderstorms and Rain
12:18 PM 71.6 °F 66.2 °F 83% 29.84 in 2.0 mi South 9.2 mph - N/A Rain , Thunderstorm Thunderstorms and Rain
12:24 PM 71.1 °F 66.9 °F 87% 29.84 in 5.0 mi SSE 9.2 mph - 0.30 in Rain , Thunderstorm Light Thunderstorms and Rain
12:42 PM 73.0 °F 66.9 °F 81% 29.84 in 8.0 mi South 9.2 mph - 0.31 in Rain , Thunderstorm Light Thunderstorms and Rain
12:51 PM 73.0 °F 66.9 °F 81% 29.83 in 10.0 mi South 8.1 mph - 0.31 in Thunderstorm Thunderstorm
1:04 PM 73.9 °F 66.9 °F 79% 29.82 in 10.0 mi South 8.1 mph - N/A   Mostly Cloudy
1:51 PM 78.1 °F 68.0 °F 71% 29.82 in 10.0 mi South 12.7 mph - N/A   Mostly Cloudy
1:54 PM 77.0 °F 68.0 °F 74% 29.81 in 10.0 mi South 15.0 mph - N/A Thunderstorm Thunderstorm
2:05 PM 75.9 °F 68.0 °F 76% 29.86 in 1.0 mi NNW 19.6 mph 27.6 mph 0.00 in Rain , Thunderstorm Heavy Thunderstorms and Rain
2:07 PM 73.9 °F 66.0 °F 76% 29.85 in 0.5 mi NW 24.2 mph 33.4 mph 0.00 in Rain , Thunderstorm Heavy Thunderstorms and Rain
2:12 PM - - N/A% - 3.7 mi WNW 18.4 mph 33.4 mph N/A   Unknown
2:16 PM 71.1 °F 64.9 °F 81% 29.84 in 6.0 mi WNW 15.0 mph 33.4 mph 0.36 in Rain , Thunderstorm Light Thunderstorms and Rain
2:18 PM 72.0 °F 64.9 °F 78% 29.84 in 6.0 mi WNW 13.8 mph 25.3 mph 0.36 in Rain , Thunderstorm Light Thunderstorms and Rain
2:33 PM 72.0 °F 64.0 °F 76% 29.83 in 10.0 mi WNW 10.4 mph - 0.36 in Thunderstorm Thunderstorm
2:51 PM 75.9 °F 66.0 °F 71% 29.81 in 10.0 mi WNW 10.4 mph - 0.36 in Thunderstorm Thunderstorm
3:15 PM 77.0 °F 66.0 °F 69% 29.83 in 10.0 mi West 11.5 mph - N/A   Partly Cloudy
3:51 PM 79.0 °F 66.0 °F 64% 29.83 in 10.0 mi West 10.4 mph - N/A   Partly Cloudy
4:51 PM 79.0 °F 61.0 °F 54% 29.85 in 10.0 mi WNW 17.3 mph 21.9 mph N/A   Partly Cloudy
5:51 PM 77.0 °F 60.1 °F 56% 29.89 in 10.0 mi NW 15.0 mph 26.5 mph N/A   Partly Cloudy
6:51 PM 73.0 °F 57.9 °F 59% 29.92 in 10.0 mi NW 17.3 mph 24.2 mph N/A   Scattered Clouds
7:51 PM 70.0 °F 57.0 °F 63% 29.98 in 10.0 mi WNW 17.3 mph 24.2 mph N/A   Mostly Cloudy
8:51 PM 66.9 °F 55.0 °F 66% 30.00 in 10.0 mi WNW 11.5 mph - N/A   Partly Cloudy
9:51 PM 66.0 °F 54.0 °F 65% 30.00 in 10.0 mi WNW 12.7 mph - N/A   Partly Cloudy
10:51 PM 64.0 °F 54.0 °F 70% 30.03 in 10.0 mi West 9.2 mph - N/A   Partly Cloudy
11:51 PM 63.0 °F 54.0 °F 72% 30.04 in 10.0 mi West 5.8 mph - N/A   Partly Cloudy